Weather in Krivyye Ozera

Russia / Arkhangel'skaya Oblast'     64°53′00″N   43°14′16″E
temp.,
°C
wind,
m/s
gust,
m/s
humid.,
%
clouds,
%
prec.,
mm/h
press.,
hPa
HPBL,
m
8 may, sat
sat800:00+5w2689100 0.1 1006162
03:00+3w239148 0.1 100766
06:00+5wsw2589100 0.0 1009228
09:00+7wsw2472100 0.1 1011899
12:00+9sw2554100 0.1 10121596
15:00+10s3653100 0.1 10121430
18:00+12se385216 0.0 10111499
21:00+8ese41265100 0.0 1011415
9 may, sun
sun900:00+8se51469100 0.0 1010485
03:00+8sse51270100 0.0 1009574
06:00+8se51380100 0.4 10091185
09:00+10se41063100 0.4 1007863
12:00+11sse6969100 0.1 10051405
15:00+9s4889100 1.6 1006682
18:00+6w4891100 0.8 1008552
21:00+5w4883100 0.8 1010686
10 may, mon
mon1000:00+3w31083100 0.0 1012548
03:00+2wsw3108499 0.0 1014381
06:00+4wsw38750 0.0 1015316
09:00+9wsw48510 0.0 10171280
12:00+12wsw5939100 0.0 10172501
15:00+11wsw5856100 0.4 10191634
18:00+12wsw364782 0.1 10201726
21:00+8s226787 0.1 102122
11 may, tue
tue1100:00+8ssw31072100 0.0 1021412
03:00+7s2790100 0.7 1020388
06:00+7ssw2793100 0.3 1020458
09:00+8ssw2694100 0.5 1020409
12:00+9ssw2592100 0.0 1021430
15:00+10s2695100 0.1 1022372
18:00+13ssw2687100 0.0 1022446
21:00+11sse3896100 0.0 1021185
12 may, wed
wed1200:00+12sw41290100 0.0 1021337
03:00+12sw41284100 0.0 1021446
06:00+13sw4128084 0.0 1022562
09:00+17wsw586557 0.0 1022786
12:00+19wsw5958100 0.0 10231298
15:00+22w594510 0.0 10231985
18:00+21wnw474914 0.0 10241136
21:00+15w22696 0.0 102411